User: anonymous
Location: Unspecified
(0.0000°N, 0.0000°E)
Time: 12:13:17
(UTC+00:00)
Language:

AUBIESAT-1 - Orbit

View from above orbital plane
View from above orbital plane
View from above satellite
View from above satellite

Ground track
Ground track

The orbit data is extracted from the following two-line orbital elements,

1 37854U 11061E   14264.21078484  .00011075  00000-0  71841-3 0  9096
2 37854 101.7103 341.9005 0210658 135.5207 294.1611 14.91925070157026
Epoch (UTC): 21 September 2014 05:03:31
Eccentricity: 0.0210658
inclination: 101.7103°
perigee height: 445 km
apogee height: 739 km
right ascension of ascending node: 341.9005°
argument of perigee: 135.5207°
revolutions per day: 14.91925070
mean anomaly at epoch: 294.1611°
orbit number at epoch: 15702

The dashed part of the orbit path shows where the satellite is in the earth's shadow,  

DLR